FW6511 Weather Reports


time (UTC)temp
F
wind
direction
speed
knots
gust
knots
rain 1hr
in
rain 24hr
in
rain mn
in
humidity
%
barometer
mb
20260506143058 52 18 4.3 9.6 0.00 0.00 0.00 51 1015.8
20260506142102 52 18 4.3 8.7 0.00 0.00 0.00 50 1015.9
20260506141138 52 27 3.5 8.7 0.00 0.00 0.00 49 1016.0
20260506140142 53 13 4.3 9.6 0.00 0.00 0.00 49 1016.0
20260506135058 52 19 3.5 7.0 0.00 0.00 0.00 49 1016.1
20260506134122 52 14 3.5 7.0 0.00 0.00 0.00 48 1016.1
20260506133058 52 3 4.3 7.0 0.00 0.00 0.00 48 1016.1
20260506132102 53 30 4.3 7.0 0.00 0.00 0.00 49 1016.1
20260506131138 52 53 4.3 8.7 0.00 0.00 0.00 49 1016.2
20260506130122 53 15 4.3 7.0 0.00 0.00 0.00 50 1016.2
20260506125138 53 3 2.6 5.2 0.00 0.00 0.00 50 1016.2
20260506124102 53 4 3.5 7.0 0.00 0.00 0.00 50 1016.2
20260506123058 53 20 3.5 7.0 0.00 0.00 0.00 50 1016.2
20260506122122 52 67 2.6 7.0 0.00 0.00 0.00 50 1016.2
20260506121058 53 60 3.5 7.0 0.00 0.00 0.00 50 1016.2
20260506120123 52 9 2.6 7.0 0.00 0.00 0.00 50 1016.3
20260506115138 52 46 2.6 7.0 0.00 0.00 0.00 51 1016.4
20260506114102 52 359 1.7 5.2 0.00 0.00 0.00 51 1016.5
20260506113038 52 348 1.7 6.1 0.00 0.00 0.00 53 1016.6
20260506112142 52 349 3.5 7.0 0.00 0.00 0.00 52 1016.6
20260506111038 53 11 2.6 7.8 0.00 0.00 0.00 51 1016.6
20260506105138 51 44 2.6 5.2 0.00 0.00 0.00 52 1016.6
20260506104122 50 42 3.5 7.8 0.00 0.00 0.00 50 1016.7
20260506103038 50 320 3.5 7.8 0.00 0.00 0.00 51 1016.7
20260506102102 50 339 2.6 4.3 0.00 0.00 0.00 52 1016.8
20260506101119 50 20 2.6 6.1 0.00 0.00 0.00 51 1016.8
20260506100122 50 22 2.6 7.0 0.00 0.00 0.00 51 1016.8
20260506095038 49 75 3.5 6.1 0.00 0.00 0.00 51 1016.9
20260506094123 49 61 2.6 6.1 0.00 0.00 0.00 54 1016.9
20260506093138 49 63 2.6 7.0 0.00 0.00 0.00 54 1017.0
20260506092122 49 65 2.6 6.1 0.00 0.00 0.00 54 1017.1
20260506091058 49 10 3.5 6.1 0.00 0.00 0.00 54 1017.1
20260506085038 49 34 2.6 6.1 0.00 0.00 0.00 58 1017.2
20260506084122 48 9 1.7 6.1 0.00 0.00 0.00 60 1017.2
20260506083058 47 9 1.7 4.3 0.00 0.00 0.00 60 1017.3
20260506082102 47 16 1.7 3.5 0.00 0.00 0.00 60 1017.3
20260506081219 47 47 1.7 4.3 0.00 0.00 0.00 61 1017.3
20260506073038 45 14 1.7 5.2 0.00 0.00 0.00 69 1017.3
20260506072103 45 352 1.7 3.5 0.00 0.00 0.00 69 1017.3
20260506071038 44 13 1.7 4.3 0.00 0.00 0.00 69 1017.3
20260506062123 41 10 1.7 3.5 0.00 0.00 0.00 74 1017.2
20260506061039 41 350 0.9 2.6 0.00 0.00 0.00 75 1017.2
20260506060142 40 0 0.9 2.6 0.00 0.00 0.00 75 1017.2
20260506051118 38 0 0.0 1.7 0.00 0.00 0.00 77 1017.3
20260506045039 37 0.0 0.0 0.00 0.00 0.00 76 1017.2
20260506044103 37 30 0.0 1.7 0.00 0.00 0.00 76 1017.2
20260506043038 37 315 0.0 1.7 0.00 0.00 0.00 75 1017.2
20260506042223 37 15 0.0 1.7 0.00 0.00 0.00 75 1017.2
20260506041059 37 0.0 0.9 0.00 0.00 0.00 75 1017.1
20260506040122 37 0 0.0 1.7 0.00 0.00 0.00 74 1017.2
20260506035139 37 225 0.0 1.7 0.00 0.00 0.00 74 1017.2
20260506034102 38 225 0.0 1.7 0.00 0.00 0.00 74 1017.2
20260506033038 38 225 0.0 1.7 0.00 0.00 0.00 73 1017.3
20260506032103 38 225 0.0 1.7 0.00 0.00 0.00 73 1017.3
20260506031039 38 0.0 0.9 0.00 0.00 0.00 73 1017.4
20260506025059 39 0 0.0 1.7 0.00 0.00 0.00 72 1017.4
20260506024243 39 351 0.0 1.7 0.00 0.00 0.00 72 1017.4
20260506023038 39 10 0.9 1.7 0.00 0.00 0.00 72 1017.4
20260506021039 40 334 0.0 1.7 0.00 0.00 0.00 71 1017.5
20260506020223 40 0 0.0 1.7 0.00 0.00 0.00 71 1017.6
20260506015039 40 0.0 1.7 0.00 0.00 0.00 71 1017.6
20260506014102 40 0 0.0 0.9 0.00 0.00 0.00 70 1017.7
20260506013139 40 353 0.0 0.9 0.00 0.00 0.00 70 1017.7
20260506012123 40 0 0.0 0.9 0.00 0.00 0.00 70 1017.7
20260506010122 41 338 0.0 1.7 0.00 0.00 0.00 69 1017.9
20260506005039 41 0.0 1.7 0.00 0.00 0.00 69 1018.0
20260506004103 42 0 0.9 1.7 0.00 0.00 0.00 69 1018.0
20260506003058 42 355 0.9 1.7 0.00 0.00 0.00 69 1017.9
20260506002103 42 0 0.0 1.7 0.00 0.00 0.00 69 1017.9
20260506001039 42 354 0.0 1.7 0.00 0.00 0.00 69 1017.9
20260505235039 42 0 0.0 1.7 0.00 0.00 0.00 70 1018.0
20260505234103 42 11 0.0 1.7 0.00 0.00 0.00 70 1018.0
20260505233139 43 0 0.0 1.7 0.00 0.00 0.00 69 1018.0
20260505232143 43 5 0.0 1.7 0.00 0.00 0.00 69 1018.1
20260505231038 43 5 0.9 1.7 0.00 0.00 0.00 69 1018.1
20260505230202 43 358 0.9 1.7 0.00 0.00 0.00 69 1018.1
20260505225119 43 359 0.9 2.6 0.00 0.00 0.00 69 1018.1
20260505224103 43 12 0.9 2.6 0.00 0.00 0.00 69 1018.1
20260505223059 43 16 0.9 2.6 0.00 0.00 0.00 69 1018.1
20260505222103 43 8 0.9 1.7 0.00 0.00 0.00 69 1018.3
20260505221039 43 7 0.9 1.7 0.00 0.00 0.00 69 1018.3
20260505220223 43 16 0.9 2.6 0.00 0.00 0.00 68 1018.3
20260505215039 43 43 0.9 3.5 0.00 0.00 0.00 68 1018.2
20260505214103 43 31 1.7 4.3 0.00 0.00 0.00 68 1018.2
20260505213039 43 26 0.9 1.7 0.00 0.00 0.00 68 1018.2
20260505212103 43 16 1.7 2.6 0.00 0.00 0.00 67 1018.2
20260505211039 44 23 1.7 4.3 0.00 0.00 0.00 67 1018.2
20260505210202 44 13 1.7 2.6 0.00 0.00 0.00 67 1018.2
20260505205039 44 19 1.7 2.6 0.00 0.00 0.00 67 1018.2
20260505204123 44 37 1.7 3.5 0.00 0.00 0.00 66 1018.2
20260505203058 44 20 1.7 3.5 0.00 0.00 0.00 66 1018.2
20260505202123 44 27 1.7 4.3 0.00 0.00 0.00 65 1018.2
20260505201039 44 27 2.6 5.2 0.00 0.00 0.00 64 1018.1
20260505200123 45 40 2.6 4.3 0.00 0.00 0.00 64 1018.1
20260505195159 45 38 1.7 4.3 0.00 0.00 0.00 64 1018.1
20260505194123 45 37 3.5 6.1 0.00 0.00 0.00 64 1018.1
20260505193039 45 41 3.5 6.1 0.00 0.00 0.00 64 1017.9
20260505192203 45 10 3.5 6.1 0.00 0.00 0.00 61 1017.9
20260505191059 46 26 3.5 7.0 0.00 0.00 0.00 60 1017.9
20260505190142 46 25 4.3 7.0 0.00 0.00 0.00 59 1017.7
20260505185039 46 35 3.5 7.0 0.00 0.00 0.00 60 1017.8
20260505184103 46 8 3.5 7.0 0.00 0.00 0.00 60 1017.8
20260505183118 46 23 3.5 7.0 0.00 0.00 0.00 59 1017.7
20260505182123 46 36 4.3 7.0 0.00 0.00 0.00 60 1017.7
20260505181139 47 20 4.3 8.7 0.00 0.00 0.00 60 1017.8
20260505180123 47 34 4.3 7.0 0.00 0.00 0.00 60 1017.8
20260505175119 47 31 4.3 9.6 0.00 0.00 0.00 60 1017.8
20260505174103 47 24 3.5 7.0 0.00 0.00 0.00 60 1017.8
20260505173059 47 20 4.3 8.7 0.00 0.00 0.00 60 1017.7
20260505172103 47 24 3.5 7.0 0.00 0.00 0.00 60 1017.7
20260505171119 47 23 5.2 9.6 0.00 0.00 0.00 60 1017.7
20260505170103 48 1 3.5 7.0 0.00 0.00 0.00 60 1017.7
20260505165039 48 33 4.3 10.4 0.00 0.00 0.00 60 1017.7
20260505164103 48 26 3.5 7.0 0.00 0.00 0.00 60 1017.6
20260505163039 48 21 4.3 7.8 0.00 0.00 0.00 60 1017.6
20260505162103 47 16 4.3 7.8 0.00 0.00 0.00 60 1017.6
20260505161039 47 17 3.5 6.1 0.00 0.00 0.00 60 1017.6
20260505160143 47 22 4.3 7.0 0.00 0.00 0.00 61 1017.6
20260505153059 47 31 4.3 8.7 0.00 0.00 0.00 64 1017.5
20260505152123 47 11 3.5 7.8 0.00 0.00 0.00 64 1017.5
20260505151119 48 357 5.2 9.6 0.00 0.00 0.00 63 1017.5
20260505150203 48 29 4.3 7.8 0.00 0.00 0.00 63 1017.4